Location: Baptist Memorial Hospital
(34.4976°N, 89.0284°W)
Time: 10:27:48
(UTC+00:00)

Cosmos 1825 Rocket - Pass Details

Date: 29 October 2020
Orbit: 603 x 631 km, 82.5° (Epoch: 25 November)

Event Time Altitude Azimuth Distance (km) Brightness Sun altitude
Rises 23:39:43 0° 347° (NNW) 2,912 7.0 -7.8°
Reaches altitude 10° 23:41:59 10° 343° (NNW) 1,997 6.3 -8.2°
Maximum altitude 23:46:18 54° 267° (W) 757 4.5 -9.1°
Drops below altitude 10° 23:50:32 10° 190° (S) 1,966 6.4 -10.0°
Sets 23:52:46 0° 186° (S) 2,862 7.2 -10.4°
